| time (UTC) | temp C | wind direction | speed KPH | gust KPH | rain 1hr cm | rain 24hr cm | rain mn cm | humidity % | barometer mb |
| 20260506105657 | 10 | 76 | 0.0 | 3.2 | 0.00 | 0.00 | 0.00 | 95 | 1017.2 |
| 20260506105154 | 10 | 70 | 0.0 | 0.0 | 0.00 | 0.00 | 0.00 | 95 | 1017.3 |
| 20260506104652 | 10 | 70 | 0.0 | 1.6 | 0.00 | 0.00 | 0.00 | 95 | 1017.1 |
| 20260506104149 | 10 | 70 | 0.0 | 0.0 | 0.00 | 0.00 | 0.00 | 95 | 1017.1 |
| 20260506103646 | 10 | 70 | 0.0 | 0.0 | 0.00 | 0.00 | 0.00 | 95 | 1016.7 |
| 20260506103143 | 10 | 70 | 0.0 | 0.0 | 0.00 | 0.00 | 0.00 | 96 | 1017.1 |
| 20260506102641 | 10 | 70 | 0.0 | 0.0 | 0.00 | 0.00 | 0.00 | 96 | 1017.1 |
| 20260506102138 | 10 | 70 | 0.0 | 1.6 | 0.00 | 0.00 | 0.00 | 96 | 1016.9 |
| 20260506101635 | 10 | 70 | 0.0 | 0.0 | 0.00 | 0.00 | 0.00 | 96 | 1016.8 |
| 20260506101132 | 10 | 70 | 0.0 | 1.6 | 0.00 | 0.00 | 0.00 | 96 | 1016.9 |
| 20260506100631 | 10 | 84 | 0.0 | 1.6 | 0.00 | 0.00 | 0.00 | 96 | 1016.8 |
| 20260506100128 | 9 | 75 | 0.0 | 1.6 | 0.00 | 0.00 | 0.00 | 96 | 1016.9 |
| 20260506095627 | 9 | 80 | 0.0 | 0.0 | 0.00 | 0.00 | 0.00 | 96 | 1016.9 |
| 20260506095123 | 9 | 81 | 0.0 | 1.6 | 0.00 | 0.00 | 0.00 | 96 | 1016.8 |
| 20260506094620 | 9 | 85 | 0.0 | 1.6 | 0.00 | 0.00 | 0.00 | 96 | 1016.8 |
| 20260506094118 | 8 | 81 | 0.0 | 0.0 | 0.00 | 0.00 | 0.00 | 96 | 1016.9 |
| 20260506093616 | 8 | 81 | 0.0 | 0.0 | 0.00 | 0.00 | 0.00 | 96 | 1017.0 |
| 20260506093113 | 8 | 83 | 0.0 | 0.0 | 0.00 | 0.00 | 0.00 | 96 | 1016.8 |
| 20260506092611 | 9 | 83 | 0.0 | 0.0 | 0.00 | 0.00 | 0.00 | 96 | 1016.6 |
| 20260506092108 | 8 | 93 | 0.0 | 1.6 | 0.00 | 0.00 | 0.00 | 96 | 1016.7 |
| 20260506091606 | 8 | 91 | 0.0 | 1.6 | 0.00 | 0.00 | 0.00 | 96 | 1016.8 |
| 20260506091103 | 8 | 81 | 0.0 | 1.6 | 0.00 | 0.00 | 0.00 | 96 | 1016.7 |
| 20260506090601 | 8 | 78 | 0.0 | 0.0 | 0.00 | 0.00 | 0.00 | 96 | 1016.7 |
| 20260506090057 | 8 | 75 | 0.0 | 0.0 | 0.00 | 0.00 | 0.00 | 96 | 1016.7 |
| 20260506085554 | 8 | 75 | 0.0 | 0.0 | 0.00 | 0.00 | 0.00 | 96 | 1017.0 |
| 20260506085050 | 8 | 76 | 0.0 | 0.0 | 0.00 | 0.00 | 0.00 | 96 | 1016.7 |
| 20260506084547 | 8 | 76 | 0.0 | 0.0 | 0.00 | 0.00 | 0.00 | 96 | 1016.7 |
| 20260506084043 | 8 | 80 | 0.0 | 0.0 | 0.00 | 0.00 | 0.00 | 95 | 1016.6 |
| 20260506083541 | 8 | 75 | 0.0 | 1.6 | 0.00 | 0.00 | 0.00 | 96 | 1016.6 |
| 20260506083038 | 8 | 72 | 0.0 | 0.0 | 0.00 | 0.00 | 0.00 | 96 | 1016.6 |
| 20260506082535 | 8 | 76 | 0.0 | 0.0 | 0.00 | 0.00 | 0.00 | 95 | 1016.6 |
| 20260506082030 | 8 | 72 | 0.0 | 0.0 | 0.00 | 0.00 | 0.00 | 95 | 1016.6 |
| 20260506081529 | 9 | 73 | 0.0 | 0.0 | 0.00 | 0.00 | 0.00 | 95 | 1016.5 |
| 20260506081026 | 9 | 81 | 0.0 | 0.0 | 0.00 | 0.00 | 0.00 | 95 | 1016.4 |
| 20260506080523 | 9 | 73 | 0.0 | 0.0 | 0.00 | 0.00 | 0.00 | 95 | 1016.2 |
| 20260506073507 | 8 | 73 | 0.0 | 0.0 | 0.00 | 0.00 | 0.00 | 95 | 1016.0 |
| 20260506073004 | 8 | 82 | 0.0 | 0.0 | 0.00 | 0.00 | 0.00 | 95 | 1016.1 |
| 20260506072501 | 8 | 82 | 0.0 | 1.6 | 0.00 | 0.00 | 0.00 | 95 | 1015.8 |
| 20260506071959 | 9 | 80 | 0.0 | 0.0 | 0.00 | 0.00 | 0.00 | 94 | 1015.9 |
| 20260506071456 | 9 | 82 | 0.0 | 0.0 | 0.00 | 0.00 | 0.00 | 95 | 1015.9 |
| 20260506070953 | 9 | 75 | 0.0 | 0.0 | 0.00 | 0.00 | 0.00 | 94 | 1015.9 |
| 20260506070450 | 9 | 77 | 0.0 | 0.0 | 0.00 | 0.00 | 0.00 | 94 | 1015.9 |
| 20260506062428 | 9 | 78 | 0.0 | 1.6 | 0.00 | 0.00 | 0.00 | 94 | 1015.8 |
| 20260506061923 | 9 | 59 | 1.6 | 4.8 | 0.00 | 0.00 | 0.00 | 93 | 1015.8 |
| 20260506061420 | 10 | 85 | 0.0 | 0.0 | 0.00 | 0.00 | 0.00 | 93 | 1015.9 |
| 20260506060918 | 10 | 82 | 0.0 | 3.2 | 0.00 | 0.00 | 0.00 | 93 | 1015.9 |
| 20260506060416 | 10 | 78 | 0.0 | 3.2 | 0.00 | 0.00 | 0.00 | 93 | 1015.8 |
| 20260506051348 | 10 | 95 | 0.0 | 1.6 | 0.00 | 0.00 | 0.00 | 92 | 1015.6 |
| 20260506050845 | 10 | 80 | 0.0 | 1.6 | 0.00 | 0.00 | 0.00 | 92 | 1015.5 |
| 20260506050343 | 10 | 87 | 0.0 | 1.6 | 0.00 | 0.00 | 0.00 | 92 | 1015.5 |
| 20260506044833 | 10 | 82 | 0.0 | 0.0 | 0.00 | 0.00 | 0.00 | 91 | 1015.4 |
| 20260506044331 | 10 | 83 | 0.0 | 1.6 | 0.00 | 0.00 | 0.00 | 91 | 1015.2 |
| 20260506043828 | 10 | 75 | 0.0 | 1.6 | 0.00 | 0.00 | 0.00 | 91 | 1015.1 |
| 20260506043325 | 10 | 83 | 0.0 | 0.0 | 0.00 | 0.00 | 0.00 | 91 | 1015.2 |
| 20260506042823 | 10 | 79 | 0.0 | 0.0 | 0.00 | 0.00 | 0.00 | 90 | 1015.1 |
| 20260506042322 | 10 | 90 | 1.6 | 1.6 | 0.00 | 0.00 | 0.00 | 91 | 1015.2 |
| 20260506041821 | 10 | 86 | 1.6 | 1.6 | 0.00 | 0.00 | 0.00 | 90 | 1014.9 |
| 20260506041317 | 10 | 81 | 0.0 | 0.0 | 0.00 | 0.00 | 0.00 | 89 | 1014.8 |
| 20260506040814 | 10 | 80 | 0.0 | 0.0 | 0.00 | 0.00 | 0.00 | 89 | 1014.8 |
| 20260506040312 | 10 | 84 | 0.0 | 0.0 | 0.00 | 0.00 | 0.00 | 89 | 1014.9 |
| 20260506035808 | 10 | 76 | 0.0 | 3.2 | 0.00 | 0.00 | 0.00 | 89 | 1014.6 |
| 20260506035306 | 10 | 82 | 0.0 | 1.6 | 0.00 | 0.00 | 0.00 | 89 | 1014.6 |
| 20260506034802 | 11 | 82 | 0.0 | 0.0 | 0.00 | 0.00 | 0.00 | 88 | 1014.4 |
| 20260506034259 | 11 | 82 | 0.0 | 0.0 | 0.00 | 0.00 | 0.00 | 87 | 1014.5 |
| 20260506033756 | 11 | 82 | 0.0 | 0.0 | 0.00 | 0.00 | 0.00 | 87 | 1014.5 |
| 20260506033253 | 11 | 82 | 0.0 | 0.0 | 0.00 | 0.00 | 0.00 | 86 | 1014.6 |
| 20260506032750 | 11 | 82 | 0.0 | 0.0 | 0.00 | 0.00 | 0.00 | 86 | 1014.5 |
| 20260506032247 | 11 | 82 | 0.0 | 0.0 | 0.00 | 0.00 | 0.00 | 85 | 1014.5 |
| 20260506031744 | 11 | 84 | 0.0 | 0.0 | 0.00 | 0.00 | 0.00 | 84 | 1014.5 |
| 20260506031241 | 12 | 84 | 0.0 | 0.0 | 0.00 | 0.00 | 0.00 | 84 | 1014.6 |
| 20260506030739 | 12 | 85 | 0.0 | 3.2 | 0.00 | 0.00 | 0.00 | 83 | 1014.6 |
| 20260506030236 | 12 | 87 | 0.0 | 3.2 | 0.00 | 0.00 | 0.00 | 82 | 1014.5 |
| 20260506025733 | 12 | 113 | 3.2 | 4.8 | 0.00 | 0.00 | 0.00 | 82 | 1014.4 |
| 20260506025230 | 12 | 84 | 0.0 | 1.6 | 0.00 | 0.00 | 0.00 | 81 | 1014.6 |
| 20260506024726 | 12 | 86 | 0.0 | 1.6 | 0.00 | 0.00 | 0.00 | 81 | 1014.5 |
| 20260506024223 | 12 | 100 | 4.8 | 4.8 | 0.00 | 0.00 | 0.00 | 80 | 1014.5 |
| 20260506023719 | 13 | 118 | 1.6 | 4.8 | 0.00 | 0.00 | 0.00 | 80 | 1014.5 |
| 20260506023217 | 13 | 99 | 3.2 | 3.2 | 0.00 | 0.00 | 0.00 | 79 | 1014.3 |
| 20260506022713 | 13 | 102 | 3.2 | 3.2 | 0.00 | 0.00 | 0.00 | 78 | 1014.4 |
| 20260506022211 | 13 | 76 | 0.0 | 1.6 | 0.00 | 0.00 | 0.00 | 78 | 1014.5 |
| 20260506021709 | 13 | 76 | 1.6 | 3.2 | 0.00 | 0.00 | 0.00 | 78 | 1014.5 |
| 20260506021206 | 13 | 79 | 0.0 | 3.2 | 0.00 | 0.00 | 0.00 | 77 | 1014.4 |
| 20260506020703 | 14 | 94 | 1.6 | 3.2 | 0.00 | 0.00 | 0.00 | 77 | 1014.5 |
| 20260506020201 | 14 | 89 | 3.2 | 4.8 | 0.00 | 0.00 | 0.00 | 76 | 1014.4 |
| 20260506015658 | 14 | 87 | 1.6 | 4.8 | 0.00 | 0.00 | 0.00 | 75 | 1014.5 |
| 20260506015155 | 14 | 104 | 1.6 | 4.8 | 0.00 | 0.00 | 0.00 | 76 | 1014.3 |
| 20260506014652 | 15 | 94 | 3.2 | 9.7 | 0.00 | 0.00 | 0.00 | 75 | 1014.5 |
| 20260506014148 | 15 | 137 | 3.2 | 9.7 | 0.00 | 0.00 | 0.00 | 74 | 1014.5 |
| 20260506013646 | 15 | 78 | 1.6 | 3.2 | 0.00 | 0.00 | 0.00 | 75 | 1014.5 |
| 20260506013143 | 15 | 334 | 6.4 | 9.7 | 0.00 | 0.00 | 0.00 | 76 | 1014.4 |
| 20260506012639 | 15 | 96 | 1.6 | 3.2 | 0.00 | 0.00 | 0.00 | 75 | 1014.5 |
| 20260506012136 | 15 | 98 | 1.6 | 6.4 | 0.00 | 0.00 | 0.00 | 75 | 1014.5 |
| 20260506011633 | 15 | 84 | 0.0 | 4.8 | 0.00 | 0.00 | 0.00 | 74 | 1014.4 |
| 20260506011129 | 15 | 241 | 3.2 | 9.7 | 0.00 | 0.00 | 0.00 | 74 | 1014.3 |
| 20260506010628 | 15 | 78 | 3.2 | 6.4 | 0.00 | 0.00 | 0.00 | 75 | 1014.5 |
| 20260506010125 | 15 | 184 | 6.4 | 11.3 | 0.00 | 0.00 | 0.00 | 74 | 1014.4 |
| 20260506005622 | 16 | 127 | 3.2 | 11.3 | 0.00 | 0.00 | 0.00 | 73 | 1014.4 |
| 20260506005118 | 16 | 89 | 3.2 | 6.4 | 0.00 | 0.00 | 0.00 | 74 | 1014.3 |
| 20260506004615 | 16 | 102 | 1.6 | 9.7 | 0.00 | 0.00 | 0.00 | 73 | 1014.4 |
| 20260506004112 | 16 | 113 | 3.2 | 9.7 | 0.00 | 0.00 | 0.00 | 75 | 1014.5 |
| 20260506003608 | 16 | 138 | 3.2 | 4.8 | 0.00 | 0.00 | 0.00 | 74 | 1014.6 |
| 20260506003105 | 16 | 127 | 3.2 | 4.8 | 0.00 | 0.00 | 0.00 | 76 | 1014.5 |
| 20260506002600 | 15 | 203 | 6.4 | 6.4 | 0.00 | 0.00 | 0.00 | 76 | 1014.5 |
| 20260506002057 | 15 | 79 | 1.6 | 6.4 | 0.00 | 0.00 | 0.00 | 76 | 1014.4 |
| 20260506001553 | 15 | 188 | 3.2 | 4.8 | 0.00 | 0.00 | 0.00 | 77 | 1014.5 |
| 20260506001050 | 15 | 150 | 3.2 | 6.4 | 0.00 | 0.00 | 0.00 | 75 | 1014.5 |
| 20260506000548 | 15 | 68 | 1.6 | 4.8 | 0.00 | 0.00 | 0.00 | 76 | 1014.6 |
| 20260506000045 | 15 | 135 | 3.2 | 4.8 | 0.00 | 0.00 | 0.00 | 75 | 1014.5 |
| 20260505235543 | 15 | 84 | 1.6 | 4.8 | 0.00 | 0.00 | 0.00 | 75 | 1014.6 |
| 20260505235040 | 15 | 111 | 3.2 | 3.2 | 0.00 | 0.00 | 0.00 | 77 | 1014.6 |
| 20260505234537 | 15 | 126 | 6.4 | 6.4 | 0.00 | 0.00 | 0.00 | 76 | 1014.7 |
| 20260505234033 | 15 | 102 | 1.6 | 6.4 | 0.00 | 0.00 | 0.00 | 75 | 1014.6 |
| 20260505233531 | 16 | 130 | 3.2 | 6.4 | 0.00 | 0.00 | 0.00 | 74 | 1014.7 |
| 20260505233028 | 16 | 150 | 4.8 | 6.4 | 0.00 | 0.00 | 0.00 | 75 | 1014.8 |
| 20260505232526 | 16 | 201 | 4.8 | 6.4 | 0.00 | 0.00 | 0.00 | 74 | 1014.8 |
| 20260505232023 | 16 | 167 | 1.6 | 4.8 | 0.00 | 0.00 | 0.00 | 73 | 1014.9 |
| 20260505231520 | 16 | 105 | 3.2 | 3.2 | 0.00 | 0.00 | 0.00 | 72 | 1014.8 |
| 20260505231019 | 16 | 111 | 3.2 | 6.4 | 0.00 | 0.00 | 0.00 | 74 | 1015.0 |
| 20260505230516 | 16 | 115 | 3.2 | 4.8 | 0.00 | 0.00 | 0.00 | 74 | 1015.0 |
| 20260505230012 | 16 | 129 | 3.2 | 6.4 | 0.00 | 0.00 | 0.00 | 74 | 1014.9 |
| 20260505225509 | 16 | 92 | 0.0 | 9.7 | 0.00 | 0.00 | 0.00 | 73 | 1014.9 |
| 20260505225005 | 16 | 118 | 3.2 | 6.4 | 0.00 | 0.00 | 0.00 | 74 | 1015.1 |
| 20260505224502 | 15 | 152 | 4.8 | 4.8 | 0.00 | 0.00 | 0.00 | 75 | 1015.0 |
| 20260505223959 | 16 | 144 | 3.2 | 6.4 | 0.00 | 0.00 | 0.00 | 75 | 1015.1 |
| 20260505223456 | 16 | 100 | 3.2 | 6.4 | 0.00 | 0.00 | 0.00 | 75 | 1015.0 |
| 20260505222952 | 16 | 104 | 3.2 | 4.8 | 0.00 | 0.00 | 0.00 | 76 | 1015.1 |
| 20260505222449 | 16 | 130 | 4.8 | 4.8 | 0.00 | 0.00 | 0.00 | 76 | 1015.1 |
| 20260505221944 | 16 | 122 | 3.2 | 4.8 | 0.00 | 0.00 | 0.00 | 76 | 1015.2 |
| 20260505221442 | 16 | 90 | 3.2 | 6.4 | 0.00 | 0.00 | 0.00 | 77 | 1015.3 |
| 20260505220939 | 16 | 113 | 4.8 | 9.7 | 0.00 | 0.00 | 0.00 | 75 | 1015.2 |
| 20260505220436 | 16 | 97 | 1.6 | 6.4 | 0.00 | 0.00 | 0.00 | 76 | 1015.3 |
| 20260505215934 | 16 | 82 | 0.0 | 4.8 | 0.00 | 0.00 | 0.00 | 74 | 1015.3 |
| 20260505215432 | 16 | 108 | 3.2 | 4.8 | 0.00 | 0.00 | 0.00 | 76 | 1015.5 |
| 20260505214929 | 16 | 98 | 1.6 | 4.8 | 0.00 | 0.00 | 0.00 | 74 | 1015.4 |
| 20260505214427 | 15 | 115 | 3.2 | 4.8 | 0.00 | 0.00 | 0.00 | 77 | 1015.4 |
| 20260505213924 | 16 | 100 | 1.6 | 6.4 | 0.00 | 0.00 | 0.00 | 75 | 1015.7 |
| 20260505213421 | 16 | 88 | 3.2 | 4.8 | 0.00 | 0.00 | 0.00 | 75 | 1015.6 |
| 20260505212917 | 15 | 101 | 1.6 | 3.2 | 0.00 | 0.00 | 0.00 | 77 | 1015.8 |
| 20260505212414 | 15 | 75 | 1.6 | 4.8 | 0.00 | 0.00 | 0.00 | 78 | 1015.7 |
| 20260505211911 | 15 | 109 | 3.2 | 4.8 | 0.00 | 0.00 | 0.00 | 77 | 1015.6 |